JES3814 SABE-SBGL

Flight info

Callsign JES3814
Flight time N/A
Altitude 37000
Route DORVO8 DORVO UN857 AKNUB
Aircraft A21N/M-SDE2E3FGHIRWXY/LB1

Departure

Time 2026-05-05 19:49
Airport Aeroparque Jorge Newbery (SABE)

Arrival

Time N/A
Airport Rio Galeão – Tom Jobim International Airport (SBGL)
Time Latitude Longitude Altitude Speed Heading
2026-05-05 19:06 -34.55673 -58.41529 30 ft 0 kts
2026-05-05 19:32 -34.55688 -58.41529 30 ft 2 kts 354°
2026-05-05 19:33 -34.55704 -58.41525 30 ft 2 kts 336°
2026-05-05 19:33 -34.55718 -58.41514 30 ft 2 kts 314°
2026-05-05 19:33 -34.55727 -58.41499 30 ft 2 kts 298°
2026-05-05 19:33 -34.55734 -58.41482 30 ft 1 kts 295°
2026-05-05 19:34 -34.55736 -58.41477 30 ft 0 kts 297°
2026-05-05 19:38 -34.55733 -58.41482 30 ft 1 kts 297°
2026-05-05 19:38 -34.55730 -58.41490 30 ft 0 kts 295°
2026-05-05 19:44 -34.55728 -58.41497 30 ft 5 kts 295°
2026-05-05 19:44 -34.55730 -58.41546 30 ft 6 kts 241°
2026-05-05 19:44 -34.55764 -58.41579 30 ft 7 kts 214°
2026-05-05 19:44 -34.55785 -58.41615 30 ft 4 kts 271°
2026-05-05 19:45 -34.55761 -58.41686 29 ft 11 kts 296°
2026-05-05 19:45 -34.55724 -58.41771 29 ft 12 kts 302°
2026-05-05 19:45 -34.55678 -58.41854 29 ft 12 kts 304°
2026-05-05 19:45 -34.55632 -58.41936 30 ft 12 kts 304°
2026-05-05 19:46 -34.55586 -58.42018 30 ft 12 kts 306°
2026-05-05 19:46 -34.55535 -58.42101 30 ft 12 kts 306°
2026-05-05 19:46 -34.55485 -58.42183 30 ft 12 kts 306°
2026-05-05 19:46 -34.55433 -58.42268 30 ft 13 kts 307°
2026-05-05 19:47 -34.55380 -58.42358 30 ft 13 kts 297°
2026-05-05 19:47 -34.55362 -58.42467 29 ft 13 kts 261°
2026-05-05 19:47 -34.55396 -58.42507 30 ft 3 kts 162°
2026-05-05 19:47 -34.55413 -58.42491 30 ft 3 kts 130°
2026-05-05 19:48 -34.55418 -58.42482 30 ft 0 kts 126°
2026-05-05 19:48 -34.55466 -58.42401 31 ft 38 kts 126°
2026-05-05 19:49 -34.55734 -58.41915 29 ft 101 kts 124°
2026-05-05 19:49 -34.56049 -58.41345 32 ft 143 kts 125°
2026-05-05 19:49 -34.56876 -58.39937 698 ft 155 kts 125°
2026-05-05 19:49 -34.57444 -58.38841 1379 ft 157 kts 110°
2026-05-05 19:50 -34.57399 -58.37517 1755 ft 171 kts 58°
2026-05-05 19:50 -34.56470 -58.36497 2030 ft 195 kts 30°
2026-05-05 19:50 -34.55243 -58.35536 2331 ft 222 kts 42°
2026-05-05 19:50 -34.54372 -58.33854 2546 ft 254 kts 76°
2026-05-05 19:51 -34.54403 -58.31696 3136 ft 267 kts 100°
2026-05-05 19:51 -34.54851 -58.29475 3860 ft 275 kts 104°
2026-05-05 19:51 -34.55375 -58.27209 4587 ft 282 kts 105°
2026-05-05 19:51 -34.55910 -58.24883 5310 ft 290 kts 105°
2026-05-05 19:52 -34.56452 -58.22477 5955 ft 301 kts 105°
2026-05-05 19:52 -34.57005 -58.19978 6586 ft 310 kts 104°
2026-05-05 19:52 -34.57562 -58.17434 7325 ft 313 kts 105°
2026-05-05 19:52 -34.58120 -58.14875 8176 ft 313 kts 105°
2026-05-05 19:53 -34.58674 -58.12319 9006 ft 314 kts 105°
2026-05-05 19:53 -34.59230 -58.09755 9791 ft 316 kts 105°
2026-05-05 19:53 -34.59796 -58.07137 10356 ft 326 kts 105°
2026-05-05 19:53 -34.60186 -58.05335 10541 ft 339 kts 105°
2026-05-05 19:54 -34.60800 -58.02487 10799 ft 358 kts 105°
2026-05-05 19:54 -34.61444 -57.99497 11093 ft 373 kts 105°
2026-05-05 19:54 -34.62108 -57.96412 11525 ft 382 kts 105°
2026-05-05 19:54 -34.62783 -57.93269 12058 ft 387 kts 105°
2026-05-05 19:55 -34.63466 -57.90082 12528 ft 395 kts 105°
2026-05-05 19:55 -34.64161 -57.86832 13105 ft 399 kts 105°
2026-05-05 19:55 -34.64860 -57.83565 13773 ft 401 kts 105°
2026-05-05 19:55 -34.65565 -57.80265 14356 ft 405 kts 105°
2026-05-05 19:56 -34.66275 -57.76934 14906 ft 411 kts 105°
2026-05-05 19:56 -34.66996 -57.73546 15466 ft 416 kts 104°
2026-05-05 19:56 -34.67722 -57.70132 16021 ft 421 kts 104°
2026-05-05 19:56 -34.68457 -57.66671 16572 ft 425 kts 104°
2026-05-05 19:57 -34.69200 -57.63165 17118 ft 430 kts 104°
2026-05-05 19:57 -34.69930 -57.59624 17668 ft 435 kts 102°
2026-05-05 19:57 -34.70328 -57.55955 18109 ft 441 kts 89°
2026-05-05 19:57 -34.70050 -57.52251 18574 ft 441 kts 74°
2026-05-05 19:58 -34.69064 -57.48748 19068 ft 437 kts 59°
2026-05-05 19:58 -34.67512 -57.45658 19551 ft 435 kts 50°
2026-05-05 19:58 -34.65680 -57.42716 20057 ft 436 kts 46°
2026-05-05 19:58 -34.63731 -57.39878 20549 ft 438 kts 44°
2026-05-05 19:59 -34.61750 -57.37106 21024 ft 441 kts 44°
2026-05-05 19:59 -34.59723 -57.34288 21473 ft 445 kts 44°
2026-05-05 19:59 -34.57688 -57.31440 21918 ft 449 kts 44°